Regional Weather Roundup
Issued by NWS

Home | Current Version | Previous Version | Graphics & Text | Print | Product List | Glossary On
Versions: 1 2 3 4 5 6 7 8 9 10 11 12 13 14 15 16 17 18 19 20 21 22 23 24 25 26 27 28 29 30 31 32 33 34 35 36 37 38 39 40 41 42 43 44 45 46 47 48 49 50
000
ASUS43 KFSD 251202
RWRSD

WEATHER ROUNDUP FOR SOUTH DAKOTA
NATIONAL WEATHER SERVICE SIOUX FALLS SD
600 AM CST THU DEC 25 2014

NOTE: "FAIR" INDICATES FEW OR NO CLOUDS BELOW 12,000 FEET WITH NO
SIGNIFICANT WEATHER AND/OR OBSTRUCTIONS TO VISIBILITY.


SDZ001>005-009-010-012>017-251300-
NORTHWEST AND NORTH CENTRAL SOUTH DAKOTA

CITY           SKY/WX    TMP DP  RH WIND       PRES   REMARKS
BUFFALO          N/A     30  26  85 N13       29.52R WCI  20
FAITH            N/A     30  28  92 N7        29.56S WCI  23
MOBRIDGE       CLOUDY    33  27  78 N13       29.56R WCI  24
$$

SDZ012>016-024>037-041>051-057-063-072>074-251300-
SOUTHWEST AND SOUTH CENTRAL SOUTH DAKOTA

CITY           SKY/WX    TMP DP  RH WIND       PRES   REMARKS
RAPID CTY ARPT LGT SNOW  31  29  92 N10       29.54R FOG     WCI  22
PIERRE         LGT RAIN  33  31  92 NE15      29.53S WCI  23
CUSTER         LGT SNOW  27  24  89 NE8       29.45R FOG     WCI  19
ELLSWORTH AFB  LGT SNOW  31  30  98 N12       29.54R FOG     WCI  22
PHILIP         LGT SNOW  32  29  88 N12       29.54R FOG     WCI  23
PINE RIDGE     CLOUDY    30  24  78 N7        29.48R WCI  23
WINNER         CLOUDY    28  23  81 NW9       29.51R WCI  19
$$

SDZ004>011-016>023-039-040-251300-
NORTHEAST SOUTH DAKOTA

CITY           SKY/WX    TMP DP  RH WIND       PRES   REMARKS
ABERDEEN       CLOUDY    30  26  85 CALM      29.60R
WATERTOWN      CLOUDY    28  25  88 CALM      29.56R
SISSETON         N/A     31  28  89 NW6       29.57R WCI  25
$$

SDZ017-020-022-023-036>040-048>070-251300-
SOUTHEAST SOUTH DAKOTA

CITY           SKY/WX    TMP DP  RH WIND       PRES   REMARKS
SIOUX FALLS    CLOUDY    28  25  88 SE5       29.56R WCI  23
HURON          CLOUDY    27  24  89 N5        29.58R WCI  22
MITCHELL       CLOUDY    28  26  92 CALM      29.56R
YANKTON        CLOUDY    27  23  86 E7        29.55R WCI  19
$$

ABBREVIATIONS USED IN REMARKS
   TC - TEMPERATURE IN CELSIUS
  WCI - WIND CHILL INDEX
   HX - HEAT INDEX
  VSB - VISIBILITY




USA.gov is the U.S. government's official web portal to all federal, state and local government web resources and services.